Regional Weather Roundup
Issued by NWS

Home | Current Version | Previous Version | Graphics & Text | Print | Product List | Glossary On
Versions: 1 2 3 4 5 6 7 8 9 10 11 12 13 14 15 16 17 18 19 20 21 22 23 24 25 26 27 28 29 30 31 32 33 34 35 36 37 38 39 40 41 42 43 44 45 46 47 48 49 50
000
ASUS45 KTFX 312010
RWRMT
MONTANA REGIONAL WEATHER ROUNDUP
NATIONAL WEATHER SERVICE GREAT FALLS MT
200 PM MDT TUE MAY 31 2016

NOTE: "FAIR" INDICATES FEW OR NO CLOUDS BELOW 12000 FEET WITH NO
SIGNIFICANT WEATHER AND/OR OBSTRUCTIONS TO VISIBILITY.

MTZ001>007-043-312100-
WEST OF THE DIVIDE

CITY           SKY/WX    TMP DP  RH WIND       PRES   REMARKS
KALISPELL      MOSUNNY   66  35  31 SE5       30.15F
MISSOULA       SUNNY     68  30  24 VRB5      30.15F
BUTTE          MOSUNNY   56  27  32 W8        30.21F
MULLAN PASS    SUNNY     56  27  32 VRB3      30.22S
ANACONDA         N/A     57  32  38 N8        30.20F
DEER LODGE       N/A     57  28  33 NW6       30.22F
EUREKA           N/A     66  34  30 CALM      30.15F
HAMILTON         N/A     66  28  24 N5        30.14F
LIBBY            N/A     70  34  26 NW7       30.14F
$$

MTZ008-052>055-312100-
SOUTHWEST MONTANA

CITY           SKY/WX    TMP DP  RH WIND       PRES   REMARKS
BOZEMAN        PTSUNNY   57  34  41 SW5       30.22F
DILLON         MOSUNNY   59  29  31 NE7       30.19F
W YELLOWSTONE  MOSUNNY   54  23  30 CALM      30.20F
ENNIS          SUNNY     57  28  33 NW9G17    30.26S
$$

MTZ009-010-012-014-046-048-049-054-312100-
EAST SLOPES AND CENTRAL MONTANA

CITY           SKY/WX    TMP DP  RH WIND       PRES   REMARKS
CUT BANK       PTSUNNY   58  34  40 N13       30.20F
GREAT FALLS    PTSUNNY   61  35  37 MISG      30.21F
MALMSTROM AFB  PTSUNNY   58  36  44 NW7G15    30.21F
HELENA         SUNNY     63  34  33 NE9       30.22S
CHOTEAU          N/A     59  34  38 NW10      30.22F
$$

MTZ011-013-016-021-045-047-050-051-312100-
NORTH CENTRAL MONTANA

CITY           SKY/WX    TMP DP  RH WIND       PRES   REMARKS
HAVRE          CLOUDY    56  46  69 NW16      30.16S
LEWISTOWN      CLOUDY    50  43  77 VRB7      30.21F
N BAR RANCH    CLOUDY    52  41  66 NW23G31   30.20S
CHINOOK          N/A     57  48  72 W12       30.13F
$$

MTZ017>020-022>027-061-062-312100-
NORTHEAST MONTANA

CITY           SKY/WX    TMP DP  RH WIND       PRES   REMARKS
GLASGOW        PTSUNNY   64  42  44 N28G39    30.00R
SIDNEY         CLOUDY    55  50  82 NW24      29.88R
WOLF POINT     CLOUDY    59  50  72 NW17G26   29.96R
PLENTYWOOD       N/A     55  52  88 N23G33    29.89
POPLAR           N/A     57  50  77 N16G25    29.93S
$$

MTZ028>42-056>058-312100-
SOUTHCENTRAL AND SOUTHEAST MONTANA

CITY           SKY/WX    TMP DP  RH WIND       PRES   REMARKS
BAKER          LGT RAIN  51  32  48 NW20G28   29.94R
BILLINGS       PTSUNNY   61  37  41 N14       30.16S
LIVINGSTON     MOSUNNY   59  33  37 NW10G17   30.19F
MILES CITY     CLOUDY    57  54  89 NW23G32   30.02S
FORSYTH          N/A     55  46  71 W20G30    30.07S
$$

REGIONAL REPORTS...DAKOTAS

CITY           SKY/WX    TMP DP  RH WIND       PRES   REMARKS
WILLISTON      LGT RAIN  54  50  86 N28G36    29.84R
MINOT          CLOUDY    66  47  50 S7        29.62R
DICKINSON      LGT RAIN  50  47  89 NW32G43   29.73R
BEACH          LGT RAIN  50  50 100 NW29G41   29.91R
CROSBY         HVY RAIN  50  50 100 N25       29.86R
WATFORD CITY   RAIN      50  50 100 NW28G35   29.80R
BISMARCK       CLOUDY    58  51  78 SW15      29.65F
GRAND FORKS    PTSUNNY   64  50  60 SW21G28   29.68F
FARGO          PTSUNNY   70  45  40 SW22G29   29.73F
BUFFALO SD       N/A     55  48  77 W35G48    29.85R
RAPID CITY     CLOUDY    64  39  39 NW29G36   29.96S
$$

REGIONAL REPORTS...WYOMING/IDAHO/WASHINGTON

CITY           SKY/WX    TMP DP  RH WIND       PRES   REMARKS
GILLETTE       PTSUNNY   56  40  55 NW31G39   30.08S
SHERIDAN       CLOUDY    57  39  51 NW25G32   30.14S
BUFFALO WY     PTSUNNY   55  37  50 N33G46    30.13R
CODY           MOSUNNY   59  34  38 NE12G22   30.15F
YELLOWSTONE LA   N/A     48  25  40 VRB5      30.25F
IDAHO FALLS    SUNNY     66  27  23 NE8G20    30.15F
SALMON         SUNNY     66  28  24 NW5       30.09F
BOISE          SUNNY     74  26  16 VRB3      30.08F
SPOKANE        MOSUNNY   72  31  22 VRB3      30.13F
$$

REGIONAL REPORTS...ALBERTA

CITY           SKY/WX    TMP DP  RH WIND       PRES   REMARKS
EDMONTON       PTSUNNY   61  45  55 NW3       30.14F
CALGARY        MOSUNNY   59  36  41 CALM      30.17F
LETHBRIDGE     PTSUNNY   61  36  39 NW3       30.18F
MEDICINE HAT   CLOUDY    59  48  67 N9        30.15F
WATERTON GATE    N/A     59  36  41 NE7         N/A
CARDSTON         N/A     57  37  47 W5          N/A
MILK RIVER       N/A     59  41  51 NW12G18     N/A
$$

REGIONAL REPORTS...SASKATCHEWAN

CITY           SKY/WX    TMP DP  RH WIND       PRES   REMARKS
SWIFT CURRENT  CLOUDY    55  46  71 N20G25    30.04F
REGINA         CLOUDY    54  50  87 N13G20    29.94S
SASKATOON      PTSUNNY   61  46  59 NE14G22   30.05S
CYPRESS HILLS    N/A     45  43  93 NW7         N/A
VAL MARIE        N/A     59  46  63 N23G31      N/A
ROCKGLEN         N/A     54  46  76 N20G28      N/A
ASSINIBOIA       N/A     63  43  48 W7          N/A
$$



USA.gov is the U.S. government's official web portal to all federal, state and local government web resources and services.